Regional Weather Roundup
Issued by NWS

Home | Current Version | Previous Version | Graphics & Text | Print | Product List | Glossary Off
Versions: 1 2 3 4 5 6 7 8 9 10 11 12 13 14 15 16 17 18 19 20 21 22 23 24 25 26 27 28 29 30 31 32 33 34 35 36 37 38 39 40 41 42 43 44 45 46 47 48 49 50

000
ASUS43 KTOP 030308
RWRKS

WEATHER ROUNDUP FOR KANSAS
NATIONAL WEATHER SERVICE GOODLAND KS
1000 PM CDT THU JUL 02 2015

NOTE:  "FAIR" INDICATES FEW OR NO CLOUDS BELOW 12,000 FEET WITH NO
SIGNIFICANT WEATHER AND/OR OBSTRUCTIONS TO VISIBILITY.

KSZ001>006-013>018-027>032-041>047-030400-
NORTHWEST KANSAS

CITY           SKY/WX    TMP DP  RH WIND       PRES   REMARKS
GOODLAND       PTCLDY    68  56  65 NE9       30.07R
HAYS           CLOUDY    79  61  53 NE7       29.97R
HILL CITY      CLEAR     74  62  66 NE9       29.98R
RUSSELL        MOCLDY    78  64  61 N6        29.94R
$$

KSZ061>065-074>080-084>089-030400-
SOUTHWEST KANSAS

CITY           SKY/WX    TMP DP  RH WIND       PRES   REMARKS
DODGE CITY     CLEAR     70  60  70 SE5       30.00R
ELKHART          N/A     72  60  66 E12         N/A
GARDEN CITY    CLEAR     73  66  78 S6        30.01R
GREAT BEND     CLEAR     73  66  78 SW6       29.95S
LIBERAL        MOCLDY    72  63  73 SE5       30.04R
PRATT          CLEAR     70  66  88 CALM      29.96S
$$

KSZ066>073-081>083-090>101-030400-
SOUTHEAST KANSAS

CITY           SKY/WX    TMP DP  RH WIND       PRES   REMARKS
CHANUTE        CLEAR     72  71  97 SE3       29.93R
COFFEYVILLE    MOCLDY    75  69  81 NE6       29.91R
HUTCHINSON     CLEAR     69  66  90 SE5       29.93R
MEDICINE LODGE   N/A     75  66  73 CALM      29.93S
NEWTON         CLEAR     70  64  83 S5        29.95R
PARSONS        MOCLDY    75  72  90 CALM      29.93R
WICHITA INTL   PTCLDY    73  66  78 E5        29.92S
WICHITA JABRA  CLEAR     67  66  97 SE3       29.92S
WICHITA MCCONL CLEAR     73  65  76 SE2       29.93R
WINFIELD       PTCLDY    71  67  87 CALM      29.93S
$$

KSZ007>012-019>026-033>040-048>060-102>105-030400-
NORTHEAST KANSAS

CITY           SKY/WX    TMP DP  RH WIND       PRES   REMARKS
CONCORDIA      MOCLDY    69  66  90 W3        29.93R
EMPORIA        CLEAR     72  69  90 E5        29.91R
LAWRENCE       MOCLDY    69  67  93 E6        29.91R
MANHATTAN      CLOUDY    71  69  93 CALM      29.91R
MARYSVILLE     CLOUDY    70  68  94 E9        29.93R
OLATHE IND     MOCLDY    70  67  90 E6        29.92R
OLATHE EXE     LGT RAIN  67  67 100 E5        29.92R FOG
SALINA         MOCLDY    73  65  75 E12       29.92R
TOPEKA BILLARD CLOUDY    72  68  87 E5        29.92R
TOPEKA FORBES  CLOUDY    73  68  84 E3        29.92R
$$



USA.gov is the U.S. government's official web portal to all federal, state and local government web resources and services.